Location: Yellowknife
(62.4500°N, 114.3500°W)
Time: 03:52:47
(UTC-07:00)

Envisat - Pass Details

Date: 03 October 2023
Orbit: 762 x 764 km, 98.3° (Epoch: 07 December)

Event Time Altitude Azimuth Distance (km) Brightness Sun altitude
Rises 06:41:49 0° 18° (NNE) 3,248 6.6 -8.7°
Reaches altitude 10° 06:44:11 10° 14° (NNE) 2,318 5.8 -8.4°
Maximum altitude 06:49:06 50° 300° (WNW) 973 3.3 -7.9°
Drops below altitude 10° 06:54:00 10° 226° (SW) 2,305 5.0 -7.3°
Sets 06:56:20 0° 222° (SW) 3,228 5.8 -7.0°
